KE7OZA Weather Reports


Display with metric or nautical units.
time (UTC)temp
F
wind
direction
speed
MPH
gust
MPH
rain 1hr
in
rain 24hr
in
rain mn
in
humidity
%
barometer
mb
20260505035559 64 222 1.0 12.0 0.00 0.00 0.00 44 1010.8
20260505035101 65 252 1.0 12.0 0.00 0.00 0.00 44 1010.7
20260505034557 65 124 3.0 9.0 0.00 0.00 0.00 43 1010.6
20260505034058 65 241 2.0 12.0 0.00 0.00 0.00 43 1010.6
20260505033559 65 247 2.0 12.0 0.00 0.00 0.00 43 1010.5
20260505033056 65 230 2.0 10.0 0.00 0.00 0.00 42 1010.4
20260505032559 65 220 2.0 10.0 0.00 0.00 0.00 42 1010.4
20260505032058 65 233 2.0 9.0 0.00 0.00 0.00 42 1010.4
20260505031557 66 133 2.0 14.0 0.00 0.00 0.00 42 1010.3
20260505031058 66 227 2.0 14.0 0.00 0.00 0.00 43 1010.3
20260505030558 66 260 2.0 8.0 0.00 0.00 0.00 43 1010.2
20260505030058 66 135 2.0 11.0 0.00 0.00 0.00 43 1010.2
20260505025559 67 162 2.0 11.0 0.00 0.00 0.00 42 1010.1
20260505025059 67 173 2.0 9.0 0.00 0.00 0.00 42 1010.1
20260505024604 67 166 1.0 11.0 0.00 0.00 0.00 42 1010.0
20260505024058 67 162 2.0 11.0 0.00 0.00 0.00 41 1010.0
20260505023558 68 174 2.0 10.0 0.00 0.00 0.00 41 1010.0
20260505023056 68 123 3.0 11.0 0.00 0.00 0.00 40 1009.9
20260505022559 68 226 2.0 11.0 0.00 0.00 0.00 41 1010.0
20260505022059 68 0 3.0 11.0 0.00 0.00 0.00 41 1010.0
20260505021558 69 160 3.0 12.0 0.00 0.00 0.00 40 1010.0
20260505021058 69 162 2.0 14.0 0.00 0.00 0.00 40 1010.0
20260505020558 69 108 3.0 14.0 0.00 0.00 0.00 40 1010.0
20260505020059 69 150 3.0 14.0 0.00 0.00 0.00 39 1009.9
20260505015559 69 332 2.0 9.0 0.00 0.00 0.00 39 1010.0
20260505015101 70 126 2.0 9.0 0.00 0.00 0.00 39 1010.0
20260505014606 70 220 1.0 16.0 0.00 0.00 0.00 39 1010.0
20260505014102 70 217 4.0 16.0 0.00 0.00 0.00 38 1009.9
20260505013558 71 232 2.0 10.0 0.00 0.00 0.00 37 1010.0
20260505013121 71 151 4.0 10.0 0.00 0.00 0.00 37 1009.9
20260505012558 72 169 3.0 9.0 0.00 0.00 0.00 37 1009.9
20260505012100 72 190 2.0 9.0 0.00 0.00 0.00 37 1010.0
20260505011628 72 112 2.0 13.0 0.00 0.00 0.00 37 1010.0
20260505011058 72 251 3.0 13.0 0.00 0.00 0.00 35 1010.0
20260505010601 73 109 4.0 12.0 0.00 0.00 0.00 36 1010.0
20260505010115 73 166 3.0 13.0 0.00 0.00 0.00 36 1009.9
20260505005559 73 221 2.0 13.0 0.00 0.00 0.00 36 1010.0
20260505005059 74 183 2.0 10.0 0.00 0.00 0.00 36 1010.0
20260505004558 74 275 3.0 9.0 0.00 0.00 0.00 35 1010.0
20260505004058 74 280 1.0 9.0 0.00 0.00 0.00 35 1009.9
20260505003601 74 196 3.0 12.0 0.00 0.00 0.00 35 1010.0
20260505003104 74 253 4.0 12.0 0.00 0.00 0.00 34 1009.9
20260505002558 75 218 5.0 12.0 0.00 0.00 0.00 33 1009.9
20260505002058 75 205 1.0 13.0 0.00 0.00 0.00 34 1009.9
20260505001604 75 162 2.0 13.0 0.00 0.00 0.00 34 1009.9
20260505001058 76 217 2.0 12.0 0.00 0.00 0.00 33 1009.9
20260505000559 75 240 4.0 12.0 0.00 0.00 0.00 32 1009.8
20260505000106 76 153 3.0 13.0 0.00 0.00 0.00 32 1009.8
20260504235559 76 199 3.0 13.0 0.00 0.00 0.00 31 1009.9
20260504235102 76 193 3.0 12.0 0.00 0.00 0.00 31 1009.8
20260504234556 76 322 4.0 13.0 0.00 0.00 0.00 31 1009.8
20260504234102 76 205 4.0 14.0 0.00 0.00 0.00 31 1009.8
20260504233558 76 214 4.0 14.0 0.00 0.00 0.00 30 1009.8
20260504233108 77 226 5.0 14.0 0.00 0.00 0.00 30 1009.7
20260504232559 78 147 2.0 11.0 0.00 0.00 0.00 30 1009.7
20260504232058 78 227 3.0 11.0 0.00 0.00 0.00 29 1009.8
20260504231557 79 205 5.0 13.0 0.00 0.00 0.00 26 1009.7
20260504231058 79 206 2.0 14.0 0.00 0.00 0.00 28 1009.7
20260504230601 78 260 5.0 14.0 0.00 0.00 0.00 28 1009.7
20260504225559 79 263 2.0 6.0 0.00 0.00 0.00 27 1009.7
20260504225059 79 314 2.0 8.0 0.00 0.00 0.00 28 1009.7
20260504224558 79 256 2.0 10.0 0.00 0.00 0.00 28 1009.8
20260504224059 80 203 3.0 10.0 0.00 0.00 0.00 27 1009.9
20260504223559 80 245 4.0 10.0 0.00 0.00 0.00 27 1009.9
20260504223102 79 204 3.0 9.0 0.00 0.00 0.00 28 1009.8
20260504222601 80 224 2.0 9.0 0.00 0.00 0.00 28 1009.9
20260504222058 80 212 2.0 12.0 0.00 0.00 0.00 29 1009.9
20260504221603 79 322 3.0 12.0 0.00 0.00 0.00 27 1009.9
20260504221058 80 252 4.0 12.0 0.00 0.00 0.00 28 1010.0
20260504220558 79 210 3.0 12.0 0.00 0.00 0.00 27 1010.0
20260504220100 80 293 4.0 13.0 0.00 0.00 0.00 27 1010.0
20260504215559 80 230 4.0 13.0 0.00 0.00 0.00 26 1010.1
20260504215058 79 250 3.0 15.0 0.00 0.00 0.00 27 1010.1
20260504214614 80 201 4.0 15.0 0.00 0.00 0.00 27 1010.1
20260504214058 80 303 2.0 13.0 0.00 0.00 0.00 28 1010.1
20260504213558 79 216 3.0 11.0 0.00 0.00 0.00 29 1010.2
20260504213116 80 307 3.0 13.0 0.00 0.00 0.00 28 1010.3
20260504212559 80 327 3.0 13.0 0.00 0.00 0.00 28 1010.2
20260504212100 81 249 4.0 13.0 0.00 0.00 0.00 26 1010.3
20260504211556 81 250 4.0 7.0 0.00 0.00 0.00 27 1010.2
20260504211059 81 253 3.0 9.0 0.00 0.00 0.00 27 1010.2
20260504210559 82 213 2.0 9.0 0.00 0.00 0.00 26 1010.2
20260504205559 81 256 3.0 8.0 0.00 0.00 0.00 27 1010.3
20260504205058 81 242 3.0 8.0 0.00 0.00 0.00 26 1010.4
20260504204601 81 232 2.0 11.0 0.00 0.00 0.00 26 1010.4
20260504204058 81 242 3.0 11.0 0.00 0.00 0.00 28 1010.4
20260504203558 81 275 2.0 10.0 0.00 0.00 0.00 25 1010.4
20260504203106 81 256 3.0 10.0 0.00 0.00 0.00 27 1010.4
20260504202558 81 243 3.0 9.0 0.00 0.00 0.00 26 1010.4
20260504202059 81 242 4.0 9.0 0.00 0.00 0.00 27 1010.5
20260504201621 81 235 2.0 5.0 0.00 0.00 0.00 27 1010.4
20260504201058 81 248 1.0 5.0 0.00 0.00 0.00 27 1010.4
20260504200559 81 214 2.0 5.0 0.00 0.00 0.00 26 1010.5
20260504200111 80 264 2.0 8.0 0.00 0.00 0.00 28 1010.6
20260504195558 79 237 3.0 11.0 0.00 0.00 0.00 28 1010.6
20260504195059 79 193 2.0 12.0 0.00 0.00 0.00 28 1010.6
20260504194604 79 251 3.0 12.0 0.00 0.00 0.00 29 1010.6
20260504194059 79 238 2.0 12.0 0.00 0.00 0.00 29 1010.6
20260504193559 79 196 5.0 12.0 0.00 0.00 0.00 29 1010.6
20260504193113 79 228 2.0 6.0 0.00 0.00 0.00 29 1010.6
20260504192558 79 201 1.0 8.0 0.00 0.00 0.00 29 1010.7
20260504192104 79 258 3.0 10.0 0.00 0.00 0.00 28 1010.7
20260504191605 79 259 4.0 10.0 0.00 0.00 0.00 28 1010.8
20260504191055 79 248 1.0 5.0 0.00 0.00 0.00 29 1010.8
20260504190555 79 245 2.0 6.0 0.00 0.00 0.00 28 1010.8
20260504190115 78 241 1.0 6.0 0.00 0.00 0.00 30 1010.8
20260504185558 78 220 1.0 5.0 0.00 0.00 0.00 29 1010.8
20260504185059 78 226 1.0 10.0 0.00 0.00 0.00 29 1010.9
20260504184626 78 240 2.0 10.0 0.00 0.00 0.00 28 1011.0
20260504184059 79 243 3.0 9.0 0.00 0.00 0.00 28 1010.9
20260504183556 78 257 2.0 8.0 0.00 0.00 0.00 29 1010.9
20260504183056 78 233 2.0 8.0 0.00 0.00 0.00 29 1011.0
20260504182559 78 215 3.0 8.0 0.00 0.00 0.00 30 1011.0
20260504182058 77 135 2.0 11.0 0.00 0.00 0.00 31 1011.0
20260504181559 77 244 4.0 11.0 0.00 0.00 0.00 30 1011.0
20260504181056 77 246 2.0 7.0 0.00 0.00 0.00 30 1011.0
20260504180559 77 234 2.0 7.0 0.00 0.00 0.00 31 1011.0
20260504180058 76 259 2.0 7.0 0.00 0.00 0.00 31 1010.9
20260504175555 76 312 2.0 7.0 0.00 0.00 0.00 32 1011.1
20260504175055 76 264 1.0 4.0 0.00 0.00 0.00 33 1011.1
20260504174556 75 258 1.0 4.0 0.00 0.00 0.00 33 1011.0
20260504174055 75 243 1.0 5.0 0.00 0.00 0.00 32 1011.1
20260504173559 74 245 1.0 5.0 0.00 0.00 0.00 33 1011.2
20260504173058 73 221 2.0 5.0 0.00 0.00 0.00 33 1011.3
20260504172555 73 239 1.0 5.0 0.00 0.00 0.00 34 1011.3
20260504172100 72 216 2.0 4.0 0.00 0.00 0.00 34 1011.2
20260504171610 71 0 1.0 9.0 0.00 0.00 0.00 36 1011.3
20260504171056 71 207 1.0 9.0 0.00 0.00 0.00 36 1011.3
20260504170555 70 225 2.0 9.0 0.00 0.00 0.00 38 1011.3
20260504160105 62 0 1.0 3.0 0.00 0.00 0.00 55 1011.2
20260504151058 57 0 0.0 2.0 0.00 0.00 0.00 61 1011.6
20260504150558 56 0 0.0 1.0 0.00 0.00 0.00 61 1011.7
20260504141058 53 0 0.0 2.0 0.00 0.00 0.00 54 1011.5
20260504140558 53 185 0.0 1.0 0.00 0.00 0.00 54 1011.4
20260504140109 52 104 0.0 0.0 0.00 0.00 0.00 51 1011.4
20260504130557 52 104 1.0 2.0 0.00 0.00 0.00 46 1011.1
20260504120120 53 137 1.0 2.0 0.00 0.00 0.00 41 1011.2
20260504110559 54 0 0.0 2.0 0.00 0.00 0.00 40 1011.2
20260504110107 54 106 0.0 2.0 0.00 0.00 0.00 42 1011.2
20260504100559 56 0 0.0 2.0 0.00 0.00 0.00 40 1011.5
20260504100105 56 110 0.0 2.0 0.00 0.00 0.00 40 1011.5
20260504081558 59 200 0.0 2.0 0.00 0.00 0.00 40 1011.6
20260504081058 59 200 0.0 2.0 0.00 0.00 0.00 39 1011.6
20260504080559 59 0 0.0 3.0 0.00 0.00 0.00 39 1011.6
20260504050555 64 211 1.0 5.0 0.00 0.00 0.00 36 1011.9
20260504050107 65 215 1.0 4.0 0.00 0.00 0.00 36 1011.9
20260504045559 65 225 1.0 4.0 0.00 0.00 0.00 37 1011.9
20260504045055 65 231 1.0 4.0 0.00 0.00 0.00 36 1011.9
20260504044557 66 243 1.0 4.0 0.00 0.00 0.00 36 1011.9
20260504044058 66 230 2.0 5.0 0.00 0.00 0.00 35 1011.8
20260504043558 66 232 2.0 5.0 0.00 0.00 0.00 33 1011.8
20260504043106 66 220 2.0 5.0 0.00 0.00 0.00 35 1011.7
20260504042559 67 225 1.0 5.0 0.00 0.00 0.00 35 1011.7
20260504042058 67 228 2.0 5.0 0.00 0.00 0.00 33 1011.7
20260504041559 67 240 1.0 3.0 0.00 0.00 0.00 34 1011.6
20260504041057 67 248 1.0 4.0 0.00 0.00 0.00 33 1011.6
20260504040558 67 244 1.0 4.0 0.00 0.00 0.00 33 1011.6